Quillayute, WA

1:31 PM PDT on September 23, 2017 (GMT -0700)
Quillayute

Weather History for KUIL - March, 2013

Change the Weather History Date:

Thursday, March 7, 2013

  Actual Average Record
Temperature  
Mean Temperature 44 °F 43 °F  
Max Temperature 53 °F 51 °F 65 °F (2001)
Min Temperature 35 °F 36 °F 25 °F (1982)
Degree Days  
Heating Degree Days 21 22  
Month to date heating degree days 154 154  
Since 1 July heating degree days 3847 3999  
Cooling Degree Days 0 0  
Month to date cooling degree days 0 0  
Year to date cooling degree days 0 0  
Moisture  
Dew Point 38 °F    
Average Humidity 73    
Maximum Humidity 86    
Minimum Humidity 59    
Precipitation  
Precipitation 0.02 in 0.36 in 2.03 in (2004)
Month to date precipitation 3.47 2.55  
Year to date precipitation 25.58 27.51  
Sea Level Pressure  
Sea Level Pressure 30.01 in    
Wind  
Wind Speed 3 mph (East)    
Max Wind Speed 10 mph    
Max Gust Speed 14 mph    
Visibility 4 miles    
Events Fog , Rain    
T = Trace of Precipitation, MM = Missing Value Source: NWS Daily Summary

Daily Weather History Graph

Daily Weather History Graph

Search for Another Location

Airport or City:

Trip Planner

Search our weather history database for the weather conditions in past years. The results will help you decide how hot, cold, wet, or windy it might be!

Date:

Astronomy

Mar. 07, 2013 Rise Set
Actual Time 6:46 AM PST 6:12 PM PST
Civil Twilight 6:15 AM PST 6:43 PM PST
Nautical Twilight 5:39 AM PST 7:19 PM PST
Astronomical Twilight 5:03 AM PST 7:55 PM PST
Moon 4:06 AM PST (3/7) 1:51 PM PST (3/7)
Length of Visible Light 12h 27m
Length of Day
11h 25m
Waning Crescent, 19% of the Moon is Illuminated
Mar 7
Waning Crescent
Mar 11
New
Mar 19
First Quarter
Mar 27
Full
Apr 2
Last Quarter

Hourly Weather History & Observations

Time (PST) Temp. Windchill Dew Point Humidity Pressure Visibility Wind Dir Wind Speed Gust Speed Precip Events Conditions
12:17 AM 42.8 °F 41.1 °F 37.4 °F 81% 29.88 in 6.0 mi ENE 3.5 mph - N/A   Overcast
12:53 AM 42.1 °F 39.2 °F 37.9 °F 85% 29.89 in 6.0 mi ENE 4.6 mph - N/A   Overcast
1:09 AM 42.8 °F 41.1 °F 37.4 °F 81% 29.90 in 7.0 mi ENE 3.5 mph - N/A   Overcast
1:39 AM 42.8 °F 40.1 °F 37.4 °F 81% 29.90 in 7.0 mi East 4.6 mph - N/A   Overcast
1:53 AM 42.1 °F 38.4 °F 37.0 °F 82% 29.92 in 7.0 mi East 5.8 mph - N/A   Overcast
2:53 AM 42.1 °F - 37.9 °F 85% 29.93 in 7.0 mi Calm Calm - 0.00 in   Overcast
3:53 AM 41.0 °F 39.0 °F 37.9 °F 89% 29.93 in 6.0 mi East 3.5 mph - N/A   Overcast
4:00 AM 41.0 °F - 37.4 °F 87% 29.93 in 6.0 mi Calm Calm - N/A   Overcast
4:23 AM 41.0 °F 39.0 °F 37.4 °F 87% 29.93 in 6.0 mi East 3.5 mph - N/A   Overcast
4:53 AM 42.1 °F - 37.9 °F 85% 29.95 in 6.0 mi Calm Calm - N/A   Overcast
5:09 AM 41.0 °F - 37.4 °F 87% 29.94 in 6.0 mi Calm Calm - N/A   Overcast
5:36 AM 41.0 °F - 37.4 °F 87% 29.95 in 3.0 mi Calm Calm - 0.01 in Rain Light Rain
5:53 AM 41.0 °F 38.0 °F 37.0 °F 86% 29.96 in 4.0 mi NE 4.6 mph - 0.02 in Rain Light Rain
6:28 AM 41.0 °F - 37.4 °F 87% 29.97 in 6.0 mi Calm Calm - 0.00 in   Overcast
6:45 AM 41.0 °F - 37.4 °F 87% 29.97 in 5.0 mi Calm Calm - 0.00 in   Overcast
6:53 AM 41.0 °F - 37.0 °F 86% 29.98 in 6.0 mi Calm Calm - 0.00 in   Overcast
7:37 AM 42.8 °F - 37.4 °F 81% 29.99 in 5.0 mi Calm Calm - N/A   Overcast
7:53 AM 42.1 °F - 37.9 °F 85% 30.00 in 5.0 mi Calm Calm - N/A   Overcast
8:08 AM 42.8 °F - 37.4 °F 81% 30.00 in 4.0 mi Calm Calm - N/A   Overcast
8:20 AM 42.8 °F - 37.4 °F 81% 30.00 in 5.0 mi Calm Calm - N/A   Mostly Cloudy
8:53 AM 44.1 °F - 39.9 °F 85% 30.01 in 5.0 mi Calm Calm - N/A   Mostly Cloudy
9:20 AM 44.6 °F - 39.2 °F 81% 30.01 in 4.0 mi Calm Calm - N/A   Haze
9:31 AM 44.6 °F - 39.2 °F 81% 30.02 in 4.0 mi Calm Calm - N/A   Haze
9:53 AM 46.0 °F - 41.0 °F 83% 30.03 in 4.0 mi Calm Calm - N/A   Haze
10:03 AM 46.4 °F 44.3 °F 42.8 °F 87% 30.02 in 4.0 mi East 4.6 mph - N/A   Haze
10:53 AM 48.0 °F - 39.9 °F 74% 30.04 in 4.0 mi SSE 3.5 mph - N/A   Haze
11:10 AM 46.4 °F 45.2 °F 39.2 °F 76% 30.04 in 4.0 mi South 3.5 mph - N/A   Haze
11:21 AM 48.2 °F - 39.2 °F 71% 30.04 in 4.0 mi South 3.5 mph - N/A   Haze
11:30 AM 48.2 °F - 39.2 °F 71% 30.05 in 3.0 mi Calm Calm - N/A   Haze
11:40 AM 48.2 °F - 41.0 °F 76% 30.05 in 2.5 mi Calm Calm - 0.00 in Rain Light Rain
11:51 AM 48.2 °F - 39.2 °F 71% 30.05 in 3.0 mi Calm Calm - 0.00 in Rain Light Rain
11:53 AM 48.0 °F - 39.9 °F 74% 30.06 in 4.0 mi Calm Calm - 0.00 in   Haze
12:04 PM 48.2 °F - 39.2 °F 71% 30.05 in 4.0 mi Calm Calm - N/A   Haze
12:11 PM 50.0 °F - 39.2 °F 66% 30.05 in 4.0 mi SE 4.6 mph - N/A   Haze
12:53 PM 51.1 °F - 37.9 °F 61% 30.06 in 5.0 mi Calm Calm - N/A   Haze
1:14 PM 51.8 °F - 37.4 °F 58% 30.05 in 5.0 mi SSW 6.9 mph - N/A   Haze
1:23 PM 51.8 °F - 37.4 °F 58% 30.05 in 5.0 mi Variable 5.8 mph - N/A   Haze
1:53 PM 51.1 °F - 39.0 °F 63% 30.06 in 4.0 mi SW 8.1 mph - N/A   Haze
2:53 PM 50.0 °F - 37.0 °F 61% 30.06 in 4.0 mi West 8.1 mph - N/A   Haze
3:53 PM 50.0 °F - 37.0 °F 61% 30.06 in 4.0 mi West 5.8 mph - N/A   Haze
4:53 PM 48.0 °F - 36.0 °F 63% 30.06 in 4.0 mi NW 3.5 mph - N/A   Haze
5:53 PM 46.9 °F - 36.0 °F 66% 30.07 in 4.0 mi NW 3.5 mph - N/A   Haze
6:53 PM 42.1 °F 40.2 °F 37.0 °F 82% 30.08 in 5.0 mi NNW 3.5 mph - N/A   Haze
7:53 PM 39.9 °F - 35.1 °F 83% 30.08 in 5.0 mi Calm Calm - N/A   Haze
8:53 PM 39.0 °F - 34.0 °F 82% 30.09 in 5.0 mi Calm Calm - N/A   Haze
9:53 PM 39.9 °F 36.7 °F 36.0 °F 86% 30.09 in 5.0 mi ENE 4.6 mph - N/A   Overcast
10:32 PM 37.4 °F - 33.8 °F 87% 30.09 in 1.8 mi Calm Calm - N/A   Scattered Clouds
10:36 PM 37.4 °F - 33.8 °F 87% 30.09 in 0.8 mi Calm Calm - N/A   Mostly Cloudy
10:46 PM 37.4 °F - 33.8 °F 87% 30.09 in 0.2 mi Calm Calm - N/A Fog Fog
10:53 PM 37.0 °F 34.5 °F 33.1 °F 86% 30.09 in 0.2 mi East 3.5 mph - N/A Fog Fog
11:53 PM 35.1 °F - 33.1 °F 92% 30.09 in 0.2 mi Calm Calm - N/A Fog Fog